Погода в Алейске

Погода в Алейске : погода сейчас, прогноз погоды и архив. Всё, что Вы хотите узнать о погоде в Алейске!

Хотите узнать прогноз погоды в Алейске? Тогда Вам сюда: Погода в Алейске

Поиск расширенной информации на нашем сайте:

Другие новости

Новости СМИ2

Главная страница сайта

Новости сайта

03.07.2017

Напоминаем, что на нашем специализированном сайте Метеоцентр.Азия вы можете получить высокодетализированные автоматические прогнозы погоды по пунктам России, СНГ и мира в авиационном формате (включающие направление и скорость ветра, видимость, явления погоды, количество и форму облачности, нижнюю и верхнюю границу облачности).

Рекомендуем: овощи доставка стоимость

Погода в Алейске - сегодня

Время (UTC), дата Ветер
(°,м/с) 
Видим.   Явления Облачность Т
(°С)
Тd
(°С)
f(%) Тe
(°С)
Pmin
(гПа)
dP
(гПа)
Po
(мм)
O2
(г/м3)
Тmin Tmax R s Состояние
почвы
03 19.11.17 200 (Ю) 4000 м  слаб. ливневой снег  10/10 600 м кучево-дожд. 
[Cb cap]
+0.6 -3.3 75 -2  1023.7  1.5  751  302           
06 19.11.17 200 (Ю) 4000 м  слаб. ливневой снег  10/10 600 м кучево-дожд. 
[Cb cap]
-0 -1.2 92 -2  1025.3  1.5  752  303           
09 19.11.17 260 (З) 3{10}  4000 м  слаб. ливневой снег  10/10 600 м кучево-дожд. 
[Cb cap]
-1.5 -3 89 -3  1028.1  2.6  754  306           
12 19.11.17 220 (ЮЗ) 3{10}  10 км  {ливн. осадки}  8/8 600 м 
[Sc]
-3.3 -6.9 76 -5  1031.7  3.4  757  309    +0.8     
15 19.11.17 190 (Ю) 4000 м  слаб. ливневой снег  10/10 600 м кучево-дожд. 
[Cb cap]
-3.3 -6 82 -5  1033.9  2.2  758  310           
18 19.11.17 190 (Ю) 10 км  {ливн. осадки}  10/10 600 м 
[Sc]
-3.3 -5.4 85 -6  1034.3  0.3  759  310           
21 19.11.17 190 (Ю) 4000 м  слаб. ливневой снег  10/10 600 м кучево-дожд. 
[Cb cap]
-3.2 -4.5 91 -6  1034.1  -0.1  759  310           
00 20.11.17 190 (Ю) 5{10}  4000 м  слаб. ливневой снег  10/10 600 м кучево-дожд. 
[Cb cap]
-3.8 -5.4 89 -7  1034.3  0.1  759  311  -3.8    0.9  равномерный
сухой снег
100% 
03 20.11.17 190 (Ю) 5{10}  1000 м  ливневой снег  10/10 600 м кучево-дожд. 
[Cb cap]
-3.6 -5.2 89 -7  1034.8  0.5  759  311  -3.8         
06 20.11.17 200 (Ю) 5{10}  4000 м  слаб. ливневой снег  10/10 600 м кучево-дожд. 
[Cb cap]
-2.2 -4.4 85 -6  1036.2  1.5  760  309           
09 20.11.17 200 (Ю) 10 км  {ливн. осадки}  10/10 600 м 
[Sc]
-1.5 -3.8 84 -4  1036.8  0.7  761  309           
12 20.11.17 190 (Ю) 4000 м  слаб. ливневой снег  10/10 600 м кучево-дожд. 
[Cb cap]
-2.1 -3.9 87 -5  1038.1  1.1  762  310    -1.4     
15 20.11.17 190 (Ю) 10 км  {ливн. осадки}  10/10 300 м 
[Sc]
-2.5 -5.1 82 -5  1038.4  0.3  762  310           
18 20.11.17 190 (Ю) 10 км  {ливн. осадки}  10/10 300 м 
[Sc]
-2.5 -4.5 86 -5  1037.9  -0.5  761  310           
21 20.11.17 190 (Ю) 4000 м  слаб. ливневой снег  10/10 600 м кучево-дожд. 
[Cb cap]
-2.6 -4.1 89 -5  1037.5  -0.4  761  310           
00 21.11.17 190 (Ю) 4000 м  слаб. ливневой снег  10/10 600 м кучево-дожд. 
[Cb cap]
-2 -3.5 89 -5  1037.5  0.1  761  309  -2.9    равномерный
сухой снег
100% 
03 21.11.17 190 (Ю) 1000 м  ливневой снег  10/10 600 м кучево-дожд. 
[Cb cap]
-2.2 -3.6 90 -5  1038.1  0.5  762  310           
06 21.11.17 200 (Ю) 10 км  {ливн. осадки}  10/10 600 м 
[Sc diur, vesp]
-1.6 -4.1 83 -4  1038.4  0.4  762  309           
09 21.11.17 190 (Ю) 20000 м    10/10 600 м 
[Sc diur, vesp]
-2.1 -5 80 -5  1038.6  0.2  762  310           
12 21.11.17 190 (Ю) 20000 м    10/10 600 м 
[Sc]
-3.6 -6.4 81 -7  1039.7  0.9  763  312    -1.5  0.6     
15 21.11.17 190 (Ю) 20000 м    10/10 600 м 
[Sc]
-5.6 -8.1 83 -8  1039.5  -0.4  762  314           
18 21.11.17 200 (Ю) 20000 м    10/10 600 м 
[Sc]
-4.6 -7.7 79 -8  1039.1  -0.3  762  313           
21 21.11.17 190 (Ю) 4{10}  20000 м    10/10 600 м 
[Sc]
-5.6 -9.5 74 -9  1038.9  -0.3  762  314           
00 22.11.17 200 (Ю) 20000 м    10/10 600 м 
[Sc]
-6.8 -10.5 75 -10  1039  762  316  -6.8      равномерный
сухой снег
100% 
03 22.11.17 200 (Ю) 4{10}  10 км    9/8 600 м средняя 
[Sc|Ac trans]
-7.6 -11.4 74 -11  1039.2  0.2  762  317  -7.8         
Время (UTC), дата Ветер
(°,м/с) 
Видим.   Явления Облачность Т
(°С)
Тd
(°С)
f(%) Тe
(°С)
Pmin
(гПа)
dP
(гПа)
Po
(мм)
O2
(г/м3)
Тmin Tmax R s Состояние
почвы

Для получения пояснительной информации подведите курсор к названию столбца.

ПОГОДА в Алейске - архив

Всё, что Вы хотите узнать о погоде в Алейске - удобно и подробно!

Выберите нужную дату (начиная с 1 января 2015* года) и нажмите кнопку "Найти".
Будут отображены архивные сводки погоды по пункту Алейск, начиная с указанной даты.


Отображать данные в формате CSV (для использования в таблицах Excel)


Внимание! Наш архив погоды предназначен исключительно для личного некоммерческого использования в познавательных целях. Если Вам необходимы официальные справки о состоянии погоды (для производственных, юридических, коммерческих и т.п. целей), обращайтесь в органы Росгидромета.

*Примечание: данная дата относится к архиву по метеостанциям СССР (Россия, СНГ, Балтия).
Архив по метеостанциям Зарубежной Европы и Азии (кроме Китая) хранится 10 дней, по другим регионам земного шара (Китай, Африка, Америка, Австралия, Океания) - 1 день.

Алейск - район местоположения метеостанции


Название, широта, долгота, высота метеостанции:
Алейск 52.6°ш. 82.8°д. 175 м над ур. моря [Российская Федерация]

Дополнительная информация

В oтличие oт бoльшинства пoгoдных сайтoв мы публикуем пoдрoбную метеoинфoрмацию в детальнoм прoфессиoнальнoм фoрмате.

Характеристики температуры и влажнoсти вoздуха измеряются на высoте 2 м в тени вдали oт зданий и деревьев.
Скoрoсть ветра измеряется на высoте 10 м (на урoвне рoста челoвека скoрoсть ветра ниже в 1.5-2 раза). Если метеoстанция нахoдится в гoрoде или в лесу, тo скoрoсть ветра занижена на 2-4 м/с пo сравнению с oткрытым местoм. Скoрoсть ветра над акватoриями крупных рек и oзёр, а также на вершинах хoлмoв на 2-5 м/с выше, чем в oбычных услoвиях.
Атмoсфернoе давление в разных тoчках местнoсти мoжет значительнo oтличаться oт давления на метеoстанции, в зависимoсти oт услoвий рельефа (при пoдъёме на 10 м давление пoнижается примернo на 1 мм рт.ст.).